Location: Ravensburg
(47.7866°N, 9.6124°E)
Time: 03:18:14
(UTC+02:00)

Gurwin Techsat 1B - Pass Details

Date: 23 March 2026
Orbit: 809 x 812 km, 99.0° (Epoch: 14 April)

Event Time Altitude Azimuth Distance (km) Brightness Sun altitude
Rises 05:15:14 0° 18° (NNE) 3,340 12.3 -11.4°
Reaches altitude 10° 05:17:38 10° 23° (NNE) 2,404 11.6 -11.0°
Maximum altitude 05:22:51 55° 101° (E) 974 9.4 -10.1°
Drops below altitude 10° 05:28:01 10° 179° (S) 2,387 11.0 -9.3°
Sets 05:30:24 0° 184° (S) 3,314 11.6 -8.9°
